Regional Weather Roundup
Issued by NWS Spokane, WA

Home | Current Version | Previous Version | Text Only | Print | Product List | Glossary On
Versions: 1 2 3 4 5 6 7 8 9 10 11 12 13 14 15 16 17 18 19 20 21 22 23 24 25 26 27 28 29 30 31 32 33 34 35 36 37 38 39 40 41 42 43 44 45 46 47 48 49 50
000
NZUS01 KOTX 230500
RWROTX

Eastern Washington/Northern Idaho Roundup
National Weather Service, Spokane WA
1000 PM PDT THU JUN 22 2017

Note: "fair" indicated few or no clouds below 12,000 feet with no
significant weather and/or obstructions to visibility.

...Northeast Washington and Northern Idaho Panhandle...

CITY           SKY/WX    TMP DP  RH WIND       PRES   REMARKS
Spokane Intl   PTCLDY    67  32  27 VRB3      30.20S
Spokane Downto CLEAR     59  37  44 N5        30.19S
Coeur d Alene  CLEAR     62  38  40 CALM      30.21R
Deer Park      CLEAR     56  39  53 CALM      30.20R

...Southeast Washington and southern Idaho Panhandle...

CITY           SKY/WX    TMP DP  RH WIND       PRES   REMARKS
Walla Walla    CLEAR     66  44  45 E8        30.16R
Pullman/Moscow CLEAR     55  39  54 CALM      30.23R
Lowell           N/A     56  45  66 CALM      30.22R
Grangeville    FAIR      50  37  62 S6        30.25R

...Columbia Basin...

CITY           SKY/WX    TMP DP  RH WIND       PRES   REMARKS
Ephrata        CLEAR     70  34  26 W5        30.16R
Moses Lake     CLEAR     70  39  32 E3        30.17R
Pasco          CLEAR     63  48  58 CALM      30.14R
Hermiston      CLEAR     62  42  47 E5        30.14R
Pendleton      CLEAR     59  39  47 NE10      30.17R

...East Slopes Cascades...

CITY           SKY/WX    TMP DP  RH WIND       PRES   REMARKS
The Dalles     CLEAR     76  40  27 CALM      30.12R
Yakima         CLEAR     69  40  34 E3        30.17R
Ellensburg     CLEAR     67  40  37 NW12      30.18R
Wenatchee      CLEAR     67  38  34 E10       30.15R
Omak           CLEAR     63  39  41 NW13      30.18R
Sunnyside      CLEAR     58  44  58 N3        30.16R

...Southern British Columbia...

CITY           SKY/WX    TMP DP  RH WIND       PRES   REMARKS

...Western Montana...

CITY           SKY/WX    TMP DP  RH WIND       PRES   REMARKS
Kalispell      CLEAR     51  41  68 CALM      30.19R
Missoula       CLEAR     54  37  52 N3        30.21R

...Neighboring Cities...

CITY           SKY/WX    TMP DP  RH WIND       PRES   REMARKS
Seattle        PTCLDY    64  45  49 N12       30.23S
Portland       CLEAR     72  41  32 NW12G20   30.13R
Boise          CLEAR     69  33  26 NW10      30.09R
Great Falls    CLEAR     49  38  65 SE5       30.29R



USA.gov is the U.S. government's official web portal to all federal, state and local government web resources and services.